[Iaude] MPEC O55: 2015 BZ517 [a=66.18,e=0.44,i=13.3,H=8.45]
    mpec at cfa.harvard.edu 
    mpec at cfa.harvard.edu
       
    Thu Jul 25 16:20:45 EDT 2024
    
    
  
M.P.E.C. 2024-O55                                 Issued 2024 July 25, 20:19 UT
     The Minor Planet Electronic Circulars contain information on unusual
         minor planets, routine data on comets and natural satellites,
         and occasional editorial announcements.  They are published
    on behalf of Division F of the International Astronomical Union by the
          Minor Planet Center, Smithsonian Astrophysical Observatory,
                          Cambridge, MA 02138, U.S.A.
			  
             Prepared using the Tamkin Foundation Computer Network
                              MPC at CFA.HARVARD.EDU
            URL https://www.minorplanetcenter.net/    ISSN 1523-6714
                                   2015 BZ517                                   
Additional Observations:
     K15Bp7Z 4C2016 03 04.43361 10 03 30.86 +02 04 40.3          24.5 i1EO055T09
     K15Bp7Z 4C2016 03 04.44826 10 03 30.78 +02 04 40.5          24.1 i1EO055T09
     K15Bp7Z 4C2016 03 04.46258 10 03 30.71 +02 04 41.0          23.9 i1EO055T09
     K15Bp7Z 4C2016 03 07.29629 10 03 17.84 +02 06 13.1          26.0 g1EO055T09
     K15Bp7Z 4C2016 03 07.32114 10 03 17.72 +02 06 13.7          25.3 g1EO055T09
     K15Bp7Z 4C2016 03 07.32499 10 03 17.69 +02 06 14.0          25.2 g1EO055T09
     K15Bp7Z 4C2016 03 07.32886 10 03 17.69 +02 06 14.0          25.1 g1EO055T09
     K15Bp7Z 4C2016 03 09.29704 10 03 08.90 +02 07 18.0          24.8 r1EO055T09
     K15Bp7Z 4C2016 03 09.30726 10 03 08.85 +02 07 18.4          24.5 r1EO055T09
     K15Bp7Z 4C2016 03 09.32069 10 03 08.80 +02 07 18.9          24.8 r1EO055T09
     K15Bp7Z 4C2016 03 09.32455 10 03 08.76 +02 07 18.9          24.7 r1EO055T09
     K15Bp7Z 4C2016 03 09.32844 10 03 08.74 +02 07 19.2          24.8 r1EO055T09
     K15Bp7Z 4C2016 03 09.33236 10 03 08.73 +02 07 19.0          24.9 r1EO055T09
     K15Bp7Z 4C2016 03 09.33622 10 03 08.72 +02 07 19.4          24.7 r1EO055T09
     K15Bp7Z 4C2016 03 09.34016 10 03 08.71 +02 07 19.4          24.8 r1EO055T09
     K15Bp7Z 4C2016 03 12.43532 10 02 55.16 +02 09 00.9          24.0 z1EO055T09
     K15Bp7Z 4C2016 03 12.43918 10 02 55.15 +02 09 01.1          24.6 z1EO055T09
     K15Bp7Z 4C2016 03 12.44304 10 02 55.14 +02 09 01.1          24.4 z1EO055T09
     K15Bp7Z 4C2016 03 12.45077 10 02 55.09 +02 09 01.3          24.3 z1EO055T09
     K15Bp7Z 4C2016 03 12.45461 10 02 55.08 +02 09 01.3          24.6 z1EO055T09
     K15Bp7Z 4C2016 03 12.45847 10 02 55.06 +02 09 01.6          24.0 z1EO055T09
     K15Bp7Z 4C2016 03 12.46234 10 02 55.04 +02 09 01.8          24.2 z1EO055T09
     K15Bp7Z 4C2016 03 12.46618 10 02 55.03 +02 09 01.9          24.0 z1EO055T09
     K15Bp7Z 4C2016 03 12.47004 10 02 55.00 +02 09 01.9          23.8 z1EO055T09
     K15Bp7Z 4C2016 03 12.47390 10 02 54.99 +02 09 01.9          23.9 z1EO055T09
     K15Bp7Z 4C2016 03 15.46611 10 02 42.32 +02 10 40.3          23.5 y1EO055T09
     K15Bp7Z 4C2016 03 15.49118 10 02 42.22 +02 10 40.9          23.5 y1EO055T09
     K15Bp7Z 4C2016 03 15.49503 10 02 42.19 +02 10 41.3          23.7 y1EO055T09
     K15Bp7Z 4C2016 03 15.50274 10 02 42.14 +02 10 41.3          23.3 y1EO055T09
     K15Bp7Z 4C2016 03 15.50659 10 02 42.14 +02 10 41.3          24.2 y1EO055T09
     K15Bp7Z 4C2016 03 15.51045 10 02 42.14 +02 10 41.6          23.6 y1EO055T09
     K15Bp7Z 4C2016 03 15.53155 10 02 42.05 +02 10 42.4          24.3 y1EO055T09
     K15Bp7Z 1C2017 02 02.50916510 12 59.57 +01 29 41.6                WEO055T09
     K15Bp7Z 1C2017 02 02.51809410 12 59.53 +01 29 41.8                WEO055T09
     K15Bp7Z 1C2018 01 17.64964710 21 05.75 +01 04 09.8                WEO055T09
     K15Bp7Z 1C2018 01 17.65301910 21 05.74 +01 04 09.9                WEO055T09
     K15Bp7Z 4C2019 01 11.38717 10 28 21.20 +00 42 41.4          24.9 z1EO055T09
     K15Bp7Z 4C2019 01 11.41264 10 28 21.12 +00 42 41.7          24.3 z1EO055T09
     K15Bp7Z 4C2019 01 11.45545 10 28 20.99 +00 42 42.1          24.1 z1EO055T09
     K15Bp7Z 4C2019 01 11.50909 10 28 20.82 +00 42 42.7          23.9 z1EO055T09
     K15Bp7Z 1C2019 06 08.24789410 21 55.44 +01 40 15.1                WEO055T09
     K15Bp7Z 1C2019 06 08.28112110 21 55.51 +01 40 15.5                WEO055T09
Observer details:
T09 Subaru Telescope, Maunakea.  Observers H. Aihara, Y. AlSayyad, M. Ando, R.
    Armstrong, J. Bosch, E. Egami, H. Furusawa, J. Furusawa, S. Harasawa, Y.
    Harikane, B.-C. Hsieh, H. Ikeda, K. Ito, I. Iwata, T. Kodama, M. Koike, M.
    Kokubo, Y. Komiyama, X. Li, Y. Liang, Y.-T. Lin, R. H. Lupton, N. B. Lust,
    L. A. MacArthur, K. Mawatari, S. Mineo, H. Miyatake, S. Miyazaki, S. More,
    T. Morishima, H. Murayama, K. Nakajima, F. Nakata, A. J. Nishizawa, M.
    Oguri, N. Okabe, Y. Okura, Y. Ono, K. Osato, M. Ouchi, Y.-C. Pan, A. A.
    Plazas Malagon, P. A. Price, S. L. Reed, E. S. Rykoff, T. Shibuya, M.
    Simunovic, M. A. Strauss, K. Sugimori, Y. Suto, N. Suzuki, M. Takada, Y.
    Takagi, T. Takata, S. Takita, M. Tanaka, S. Tang, D. S. Taranu, T. Terai,
    Y. Toba, E. L. Turner, H. Uchiyama, B. Vijarnwannaluk, C. Z. Waters, Y.
    Yamada, N. Yamamoto, T. Yamashita.  Measurers H. A. Guler, H. Fukuyama, R.
    Aikawa, S. Deen, M. Higano.  8.2-m f/2.0 reflector + CCD(HSC), 8.3-m
    Subaru Telescope + CCD.
Orbital elements:
2015 BZ517                                                                      
Epoch 2024 Oct. 17.0 TT = JDT 2460600.5                 Alexandersen            
M  16.17949              (2000.0)            P               Q                  
n   0.00183064     Peri.  288.05614     -0.53278569     -0.84427247             
a  66.1811689      Node   194.57227     +0.83700680     -0.51566329             
e   0.4403556      Incl.   13.28630     +0.12473579     -0.14592934             
P 538              H    8.45          G   0.15           U   5                  
Residuals in seconds of arc
141118 568  0.1+  0.1+    150118 568  0.0   0.0     150127 568  0.0   0.1-
141118 568  0.0   0.1+    150118 568  0.0   0.0     150127 568  0.1-  0.2-
141118 568  0.0   0.0     150118 568  0.0   0.1+    150127 568  0.1-  0.1+
141118 568  0.1+  0.0     150118 568  0.0   0.1-    160304 T09  0.2+  0.1+
141118 568  0.1+  0.3+    150119 568  0.1+  0.0     160304 T09  0.0   0.1-
141118 568  0.0   0.0     150119 568  0.1-  0.0     160304 T09  0.0   0.1-
141118 568  0.1+  0.1+    150119 568  0.1-  0.0     160307 T09  0.0   0.2+
141118 568  0.1+  0.0     150119 568  0.1-  0.1+    160307 T09  0.1-  0.0
141118 568  0.1-  0.1+    150119 568  0.1+  0.0     160307 T09  0.3-  0.2+
141118 568  0.0   0.0     150119 568  0.1+  0.0     160307 T09  0.0   0.0
141118 568  0.0   0.0     150119 568  0.0   0.0     160309 T09  0.0   0.1-
141118 568  0.1+  0.1+    150119 568  0.1+  0.0     160309 T09  0.0   0.0
141118 568  0.0   0.0     150119 568  0.0   0.1-    160309 T09  0.1+  0.0
141118 568  0.1+  0.1+    150119 568  0.0   0.0     160309 T09  0.2-  0.1-
150116 568  0.0   0.0     150119 568  0.0   0.0     160309 T09  0.2-  0.1+
150116 568  0.1+  0.0     150119 568  0.0   0.1-    160309 T09  0.1-  0.3-
150116 568  0.0   0.0     150120 568  0.1+  0.0     160309 T09  0.0   0.0
150116 568  0.1+  0.0     150120 568  0.0   0.1-    160309 T09  0.1+  0.1-
150116 568  0.1+  0.1+    150120 568  0.0   0.0     160312 T09  0.1-  0.0
150116 568  0.1+  0.1+    150120 568  0.0   0.1-    160312 T09  0.0   0.1+
150116 568  0.0   0.1+    150120 568  0.1-  0.1+    160312 T09  0.1+  0.0
150116 568  0.1+  0.0     150120 568  0.1+  0.0     160312 T09  0.2-  0.1-
150116 568  0.1+  0.0     150120 568  0.0   0.0     160312 T09  0.1-  0.2-
150116 568  0.0   0.0     150120 568  0.1+  0.1-    160312 T09  0.1-  0.0
150116 568  0.1+  0.0     150120 568  0.0   0.0     160312 T09  0.2-  0.1+
150116 568  0.1+  0.0     150120 568  0.0   0.1+    160312 T09  0.1-  0.0
150117 568  0.1+  0.1+    150120 568  0.0   0.0     160312 T09  0.2-  0.1-
150117 568  0.1+  0.1+    150120 568  0.1+  0.0     160312 T09  0.1-  0.2-
150117 568  0.0   0.0     150121 568  0.0   0.0     160315 T09  0.0   0.0
150117 568  0.1+  0.1+    150121 568  0.0   0.0     160315 T09  0.1+  0.2-
150117 568  0.1+  0.1+    150121 568  0.0   0.0     160315 T09  0.1-  0.1+
150117 568  0.0   0.0     150121 568  0.0   0.0     160315 T09  0.4-  0.2-
150117 568  0.1+  0.0     150121 568  0.0   0.0     160315 T09  0.1-  0.3-
150117 568  0.1+  0.0     150121 568  0.0   0.0     160315 T09  0.1+  0.1-
150117 568  0.0   0.0     150121 568  0.0   0.0     160315 T09  0.1+  0.0
150117 568  0.0   0.0     150121 568  0.0   0.0     170202 T09  0.2+  0.1+
150117 568  0.1+  0.0     150121 568  0.0   0.1-    170202 T09  0.2+  0.0
150117 568  0.0   0.0     150127 568  0.1+  0.2-    180117 T09  0.0   0.0
150117 568  0.0   0.1+    150127 568  0.1-  0.1-    180117 T09  0.1+  0.1+
150117 568  0.1+  0.0     150127 568  0.1+  0.1-    190111 T09  0.1-  0.1+
150118 568  0.1-  0.1+    150127 568  0.1-  0.1+    190111 T09  0.1-  0.1+
150118 568  0.0   0.1+    150127 568  0.2-  0.1-    190111 T09  0.1-  0.0
150118 568  0.0   0.0     150127 568  0.0   0.0     190111 T09  0.1-  0.0
150118 568  0.1-  0.0     150127 568  0.1-  0.3-    190608 T09  0.2+  0.2-
150118 568  0.1-  0.0     150127 568  0.3-  0.1-    190608 T09  0.1+  0.1+
150118 568  0.0   0.1-    150127 568  0.1-  0.2-
Ephemeris:
2015 BZ517               a,e,i = 66.18, 0.44, 13                 q = 37.0379
Date    TT    R. A. (2000) Decl.     Delta      r    Elong.  Phase     V
2024 06 25    10 55 15.1 +00 03 59  40.6872 40.3774    71.6     1.4    24.7
...
2024 07 10    10 56 07.8 +00 01 38  40.9238 40.3880    57.6     1.2    24.7
...
2024 07 18    10 56 42.5 -00 00 28  41.0371 40.3937    50.2     1.1    24.7
...
2024 07 24    10 57 11.1 -00 02 23  41.1146 40.3980    44.6     1.0    24.7
2024 07 25    10 57 16.1 -00 02 44  41.1268 40.3987    43.7     1.0    24.7
2024 07 26    10 57 21.1 -00 03 05  41.1389 40.3994    42.8     1.0    24.7
...
2024 08 01    10 57 52.4 -00 05 23  41.2068 40.4037    37.3     0.9    24.7
...
2024 08 09    10 58 36.7 -00 08 51  41.2848 40.4094    29.9     0.7    24.7
...
2024 08 24    11 00 05.7 -00 16 24  41.3885 40.4200    16.5     0.4    24.7
M. P. C. Staff               (C) Copyright 2024 MPC           M.P.E.C. 2024-O55
    
    
More information about the Iaude
mailing list